SCP
0 0 0 0 0 0 0 0 0 0 0 1 1 0 0 0 0 0 0 0 0 0 0 0 0 0 0 0 0 0 0 0 0 0 0 0 0 0 0 0 0 0 0
0 0 0 0 0 0 0 0 0 0 0 1 0 0 0 0 0 0 0 0 0 0 0 0 0 0 0 0 0 0 0 0 0 0 0 0 0 0 0 0 0 0 0
0 0 0 0 0 0 0 0 0 0 0 0 0 0 0 0 0 0 0 0 0 0 0 0 0 0 0 0 0 0 0 0 0 0 0 0 0 0 0 0 0 0 0
0 0 0 0 0 0 0 0 0 0 0 0 0 0 0 0 0 0 0 0 0 0 0 0 0 0 0 0 0 0 0 0 0 0 0 0 0 0 0 0 0 0 0
0 0 0 0 0 0 0 0 0 0 0 0 0 0 0 0 0 0 0 0 0 0 0 0 0 0 0 0 0 0 0 0 0 0 0 0 0 0 0 0 0 0 0
0 0 0 0 0 0 0 0 0 0 0 0 0 0 0 0 0 0 0 0 0 0 0 0 0 0 0 0 0 0 0 0 0 0 0 0 0 0 0 0 0 0 0
0 0 0 0 0 0 0 0 0 0 0 0 0 0 0 0 0 0 0 0 0 0 0 0 0 0 0 0 0 0 0 0 0 0 0 0 0 0 0 0 0 0 0
0 0 0 0 0 0 0 0 0 0 0 0 0 0 0 0 0 0 0 0 0 0 0 0 0 0 0 0 0 0 0 0 0 0 0 0 0 0 0 0 0 0 0
0 0 0 0 0 0 0 0 0 0 0 0 0 0 0 0 0 0 0 0 0 0 0 0 0 0 0 0 0 0 0 0 0 0 0 0 0 0 0 0 0 0 0
0 0 0 0 0 0 0 0 0 0 0 0 0 0 0 0 0 0 0 0 0 0 0 0 0 0 0 0 0 0 0 0 0 0 0 0 0 0 0 0 0 0 0
0 0 0 0 0 0 0 0 0 0 0 0 0 0 1 0 0 0 0 0 0 0 0 0 0 0 0 0 0 0 0 0 0 0 0 0 0 0 0 0 0 0 0
0 0 0 0 0 0 0 0 0 0 0 0 0 0 0 0 0 0 0 0 0 0 0 0 0 0 0 0 0 0 0 0 0 0 0 0 0 0 0 0 0 0 0
0 0 0 0 0 0 0 0 0 0 0 0 0 0 0 0 0 0 0 0 0 0 0 0 0 0 0 0 0 0 0 0 0 0 0 0 0 0 0 0 0 0 0
0 0 0 0 0 0 0 0 0 0 0 0 0 0 0 0 0 0 1 0 0 0 0 0 0 0 0 0 0 0 0 0 0 0 0 0 0 0 0 0 0 0 0
0 0 0 0 0 0 0 0 0 0 0 0 0 0 0 0 0 0 0 0 0 0 0 0 0 0 0 0 0 0 0 0 0 0 0 0 0 0 0 0 0 0 0
0 0 0 0 0 0 0 0 0 0 0 0 0 0 0 1 0 1 1 0 0 0 0 0 0 0 0 0 0 0 0 0 0 0 0 0 0 0 0 0 0 0 0
0 0 0 0 -0 0 0 0 0 0 0 0 0 0 0 0 0 0 0 0 0 0 0 0 0 0 0 0 0 0 0 0 0 0 0 0 0 0 0 0 0 0 0
0 0 0 -0 -0 0 0 0 0 0 0 0 0 0 0 0 0 0 0 0 0 0 0 0 0 0 0 0 0 0 0 0 0 0 0 0 0 0 0 0 0 0 0
-0 -0 -0 -0 0 0 0 0 0 0 0 0 0 0 0 0 0 0 0 0 0 0 0 0 0 0 0 0 0 0 0 0 0 0 0 0 0 0 0 0 0 0 0
0 0 0 0 0 0 0 0 0 0 0 0 0 0 0 0 0 0 0 0 0 0 0 0 0 0 0 0 0 0 0 0 0 0 0 0 0 0 0 0 0 0 0
-0 0 -0 -0 0 0 0 0 0 0 0 0 0 0 0 0 0 0 0 0 -0 0 0 0 0 0 0 0 0 0 0 0 0 0 0 0 0 0 0 0 0 0 0
-0 0 0 -0 0 0 0 0 0 0 0 0 0 0 0 0 0 0 0 0 0 0 0 0 0 0 0 0 0 0 0 0 0 0 0 0 0 0 0 0 0 0 0
-0 -0 -0 -0 0 0 0 0 0 0 0 0 0 0 0 0 0 0 0 0 0 0 0 0 0 0 0 0 0 0 0 0 0 0 0 0 0 0 0 0 0 0 0
0 0 -0 -0 -0 0 0 0 0 0 0 0 0 0 0 0 0 0 0 0 0 0 0 0 0 0 0 0 0 0 0 0 0 0 0 0 0 0 0 0 0 0 0
0 0 0 0 0 0 -0 -0 0 0 0 0 0 0 0 0 0 0 0 0 0 0 0 0 0 0 0 0 0 0 0 0 0 0 0 0 0 0 0 0 0 0 0
0 0 0 0 -0 0 -0 -0 -0 0 0 0 0 0 0 0 0 0 0 0 0 0 0 0 0 0 0 0 0 0 0 0 0 0 0 0 0 0 0 0 0 0 0
Wind_Speed_500mb
62 62 66 68 71 68 65 65 67 69 71 72 73 77 76 77 73 68 64 53 49 54 57 64 67 66 61 59 59 56 56 55 45 46 41 41 39 34 32 27 25 23 20
63 64 66 68 71 71 68 70 71 66 66 74 79 81 83 82 79 73 71 62 56 55 60 65 66 60 59 60 58 54 54 59 63 56 51 47 45 41 40 38 36 31 28
63 63 65 68 70 72 73 70 76 66 83 59 84 85 87 89 85 80 76 71 63 60 59 66 65 59 58 52 57 52 50 53 62 63 63 58 53 50 46 44 43 42 38
62 63 64 65 68 70 74 76 74 79 76 73 92 96 95 94 93 88 82 78 72 66 63 66 68 65 63 63 56 54 51 51 53 58 55 63 63 56 53 51 52 50 47
59 60 62 63 61 68 72 75 77 75 82 79 73 77 93 98 101 94 89 85 80 72 69 67 69 69 70 69 68 66 66 60 55 58 60 60 63 63 56 53 55 55 54
57 58 59 59 59 64 70 74 75 75 72 74 87 80 77 95 99 98 95 91 86 79 72 70 70 72 72 73 68 65 68 71 59 58 61 56 57 62 61 60 56 56 57
59 55 57 57 55 61 66 69 74 73 79 74 58 73 69 98 95 89 92 98 91 83 78 75 70 72 74 74 71 69 64 64 67 55 57 60 57 56 58 56 55 54 54
54 53 51 56 56 59 63 66 70 76 79 75 67 50 56 44 103 94 95 98 98 87 85 79 73 70 73 77 78 73 66 65 69 63 52 51 58 59 58 55 53 54 57
53 51 52 55 58 59 63 65 68 73 78 77 74 61 25 33 51 82 93 98 92 92 92 85 78 71 68 71 74 73 69 66 67 69 70 64 56 54 53 52 53 54 53
56 53 52 51 56 58 58 64 68 75 69 69 75 80 82 58 34 35 72 78 87 78 71 91 88 77 67 67 69 74 71 68 66 66 68 69 70 71 69 69 64 61 62
52 53 54 51 54 55 63 68 72 74 69 68 71 81 70 75 74 38 37 77 80 77 66 80 93 85 72 70 68 72 71 68 69 68 68 69 67 67 67 67 68 67 67
48 47 51 48 46 55 66 67 68 73 70 69 73 74 78 70 82 52 42 69 79 68 61 70 90 95 77 66 73 74 74 70 69 70 70 72 72 70 67 66 68 68 69
49 52 50 44 45 55 62 58 65 72 69 72 76 76 76 83 63 75 73 56 54 63 73 78 84 100 88 76 76 73 73 74 72 74 76 74 72 71 69 71 71 69 70
52 49 48 47 48 56 58 60 60 67 71 67 74 78 86 79 100 65 70 65 47 61 79 73 85 95 91 83 75 73 76 75 70 72 72 72 72 73 73 74 71 70 69
49 50 46 50 54 58 54 56 55 61 68 67 68 66 71 83 66 83 64 69 67 46 62 61 62 66 76 80 77 83 82 76 67 64 69 66 66 68 69 69 70 72 73
45 47 45 48 52 50 48 56 60 61 62 65 63 61 63 75 77 64 71 74 76 64 43 60 58 58 54 58 61 72 82 72 64 60 60 63 68 69 71 73 68 65 63
41 43 42 45 47 32 35 46 57 54 53 56 57 48 55 57 51 56 63 66 70 67 60 49 51 52 53 49 53 63 67 67 65 60 53 52 52 56 59 61 63 67 67
35 37 35 36 34 31 23 35 52 53 51 53 46 47 56 51 53 44 42 55 61 68 75 71 63 61 57 53 53 56 57 57 55 59 54 50 51 52 47 49 50 54 56
28 27 23 19 23 16 22 18 23 44 46 42 49 59 55 60 64 56 52 50 50 57 53 51 36 51 55 53 58 57 53 52 52 50 47 44 44 42 44 41 40 39 36
23 21 18 15 15 9 8 17 17 26 32 38 37 39 54 52 58 62 49 45 37 43 57 56 52 43 50 61 60 61 55 52 45 42 42 39 39 33 31 32 34 36 40
17 19 22 20 14 16 15 15 20 20 20 23 26 27 34 51 49 53 54 44 40 46 52 52 53 63 56 67 63 66 62 56 49 43 40 35 41 43 44 44 48 51 53
15 14 14 14 12 8 7 6 12 3 11 12 16 19 18 23 44 54 57 64 57 50 58 59 60 65 74 70 72 73 70 66 53 51 59 61 55 56 54 50 44 44 38
18 16 13 11 12 10 8 7 4 7 6 7 10 12 12 15 24 40 49 50 53 54 58 56 54 63 73 74 84 80 78 76 66 64 67 59 50 49 41 40 32 27 24
25 28 26 24 21 22 17 16 14 16 18 19 19 13 7 7 3 9 24 40 53 56 58 62 62 59 62 67 79 75 87 79 65 64 51 55 44 42 33 30 24 21 19
32 35 36 35 32 29 24 29 35 40 44 46 44 41 38 35 28 17 1 12 21 32 40 56 56 53 56 44 60 72 70 68 66 62 42 48 44 41 32 29 30 28 30
35 39 43 45 42 41 42 47 54 58 61 60 56 54 51 50 47 42 36 29 30 27 25 31 34 34 38 41 51 56 64 52 51 44 42 42 55 51 31 27 25 27 27
Wind_Direction_500mb
281 273 266 260 257 251 248 244 240 240 239 239 238 236 234 232 233 234 231 229 225 222 221 223 226 230 233 233 234 234 228 227 224 222 222 220 218 219 231 240 244 238 240
281 275 268 262 256 253 247 244 239 236 239 243 239 239 237 234 233 234 233 230 230 229 229 222 224 226 227 228 228 228 231 232 230 231 231 229 229 232 232 237 242 237 246
281 275 270 264 259 253 250 246 243 238 235 236 246 242 238 236 233 233 234 230 230 232 228 221 222 224 225 225 222 227 234 238 233 233 237 237 236 236 238 241 242 244 246
282 275 271 267 264 257 251 248 247 243 238 242 240 247 242 238 235 233 234 231 229 232 229 223 225 225 225 226 227 231 236 234 228 232 236 239 242 241 241 244 245 247 249
282 275 270 268 265 262 255 250 248 250 246 240 234 240 242 242 235 233 233 232 230 231 231 231 230 229 226 227 230 233 233 235 233 231 235 239 239 241 243 246 248 247 247
280 275 269 268 267 263 261 253 250 248 251 252 246 247 244 237 232 230 233 232 229 229 231 233 234 234 232 229 229 233 232 225 229 236 236 239 237 236 240 247 246 246 249
283 274 269 267 266 264 260 258 252 248 246 243 252 248 256 245 246 238 238 235 230 227 230 232 235 235 232 231 232 233 234 233 228 237 237 236 237 237 237 240 244 246 248
284 279 273 270 266 265 262 258 253 251 247 243 241 251 240 235 229 237 242 239 232 229 230 230 234 236 235 233 234 232 233 235 234 230 233 237 238 237 237 242 247 251 251
280 275 270 271 269 267 263 259 253 247 249 243 234 227 217 214 212 218 228 237 231 231 231 230 229 234 235 234 230 232 234 232 234 236 239 240 240 240 240 244 250 252 254
287 282 278 271 269 267 263 262 254 247 244 245 239 227 235 243 208 198 219 234 240 234 237 234 228 227 232 233 233 235 235 234 233 237 241 244 246 249 250 253 254 256 255
288 283 282 277 269 263 263 266 258 247 240 238 239 232 236 238 231 195 202 212 224 233 245 240 234 234 230 234 234 234 236 237 237 237 239 242 245 249 252 254 255 256 257
291 290 292 283 278 272 272 268 257 246 238 235 234 235 225 233 241 223 212 219 219 223 227 235 234 227 228 235 239 238 237 240 241 243 242 243 245 247 247 249 251 252 255
291 295 293 282 276 280 268 267 256 244 236 233 231 231 232 230 227 226 222 221 217 222 225 224 230 230 235 233 242 237 240 242 244 247 245 241 242 243 244 247 248 251 254
293 295 294 283 277 281 271 260 252 242 237 236 231 231 232 229 235 233 224 222 212 220 228 228 233 235 232 235 238 240 241 242 243 243 242 240 241 242 244 247 249 252 254
295 298 287 281 282 279 269 252 242 237 235 234 230 233 239 232 233 241 232 225 219 212 221 226 231 235 233 230 229 233 240 242 239 244 241 238 240 243 245 246 250 252 253
298 295 288 278 287 275 264 241 235 236 234 230 233 232 228 230 234 236 235 240 234 231 233 235 228 228 231 237 239 239 238 234 237 240 241 242 240 241 249 250 249 248 249
297 293 293 281 290 271 265 236 239 230 229 225 216 216 221 225 233 227 232 237 238 235 222 217 225 234 236 237 235 235 234 232 237 241 232 237 237 242 245 247 248 252 248
305 302 291 284 274 262 238 224 221 223 219 218 215 223 231 228 232 236 230 237 232 220 230 239 233 233 237 241 235 234 231 230 229 230 235 230 233 234 237 240 245 248 247
312 306 302 298 257 268 269 254 222 224 221 231 229 231 234 230 229 232 237 239 232 238 237 238 238 242 235 230 229 220 221 227 229 232 224 225 232 232 235 234 240 242 238
316 315 329 314 314 301 272 246 232 230 221 223 226 225 224 226 227 228 233 239 241 245 235 237 245 240 245 230 223 213 214 210 211 212 222 223 222 211 204 206 212 217 207
338 342 344 347 328 288 279 242 238 215 208 221 229 226 222 221 223 225 231 238 233 237 238 236 234 241 241 219 215 215 205 202 192 197 200 189 187 185 183 184 181 176 174
351 340 335 345 347 329 286 211 173 266 252 234 227 219 234 238 224 218 218 229 237 232 234 235 238 240 242 228 224 207 208 192 169 174 176 167 168 170 165 164 164 168 171
13 15 14 19 40 32 38 92 127 226 203 193 187 199 233 237 241 229 223 222 229 233 239 243 243 236 243 244 224 214 205 195 183 168 174 156 162 160 162 167 175 181 202
47 52 54 55 58 59 66 90 110 119 128 124 110 105 140 180 92 254 231 224 224 225 230 235 238 241 242 241 225 222 200 193 176 165 167 143 152 154 155 157 164 184 185
59 62 66 68 70 80 100 110 116 119 115 105 95 87 84 83 77 70 311 237 232 233 225 228 228 224 223 221 219 211 192 179 160 161 173 162 152 146 147 153 157 159 161
74 72 70 72 75 83 100 105 106 105 103 100 98 94 84 78 76 84 92 105 125 127 151 174 177 180 180 181 180 184 183 183 170 151 166 163 158 150 128 153 166 167 176
Wind_Speed_850mb
62 62 66 68 71 68 65 65 67 69 71 72 73 77 76 77 73 68 64 53 49 54 57 64 67 66 61 59 59 56 56 55 45 46 41 41 39 34 32 27 25 23 20
63 64 66 68 71 71 68 70 71 66 66 74 79 81 83 82 79 73 71 62 56 55 60 65 66 60 59 60 58 54 54 59 63 56 51 47 45 41 40 38 36 31 28
63 63 65 68 70 72 73 70 76 66 83 59 84 85 87 89 85 80 76 71 63 60 59 66 65 59 58 52 57 52 50 53 62 63 63 58 53 50 46 44 43 42 38
62 63 64 65 68 70 74 76 74 79 76 73 92 96 95 94 93 88 82 78 72 66 63 66 68 65 63 63 56 54 51 51 53 58 55 63 63 56 53 51 52 50 47
59 60 62 63 61 68 72 75 77 75 82 79 73 77 93 98 101 94 89 85 80 72 69 67 69 69 70 69 68 66 66 60 55 58 60 60 63 63 56 53 55 55 54
57 58 59 59 59 64 70 74 75 75 72 74 87 80 77 95 99 98 95 91 86 79 72 70 70 72 72 73 68 65 68 71 59 58 61 56 57 62 61 60 56 56 57
59 55 57 57 55 61 66 69 74 73 79 74 58 73 69 98 95 89 92 98 91 83 78 75 70 72 74 74 71 69 64 64 67 55 57 60 57 56 58 56 55 54 54
54 53 51 56 56 59 63 66 70 76 79 75 67 50 56 44 103 94 95 98 98 87 85 79 73 70 73 77 78 73 66 65 69 63 52 51 58 59 58 55 53 54 57
53 51 52 55 58 59 63 65 68 73 78 77 74 61 25 33 51 82 93 98 92 92 92 85 78 71 68 71 74 73 69 66 67 69 70 64 56 54 53 52 53 54 53
56 53 52 51 56 58 58 64 68 75 69 69 75 80 82 58 34 35 72 78 87 78 71 91 88 77 67 67 69 74 71 68 66 66 68 69 70 71 69 69 64 61 62
52 53 54 51 54 55 63 68 72 74 69 68 71 81 70 75 74 38 37 77 80 77 66 80 93 85 72 70 68 72 71 68 69 68 68 69 67 67 67 67 68 67 67
48 47 51 48 46 55 66 67 68 73 70 69 73 74 78 70 82 52 42 69 79 68 61 70 90 95 77 66 73 74 74 70 69 70 70 72 72 70 67 66 68 68 69
49 52 50 44 45 55 62 58 65 72 69 72 76 76 76 83 63 75 73 56 54 63 73 78 84 100 88 76 76 73 73 74 72 74 76 74 72 71 69 71 71 69 70
52 49 48 47 48 56 58 60 60 67 71 67 74 78 86 79 100 65 70 65 47 61 79 73 85 95 91 83 75 73 76 75 70 72 72 72 72 73 73 74 71 70 69
49 50 46 50 54 58 54 56 55 61 68 67 68 66 71 83 66 83 64 69 67 46 62 61 62 66 76 80 77 83 82 76 67 64 69 66 66 68 69 69 70 72 73
45 47 45 48 52 50 48 56 60 61 62 65 63 61 63 75 77 64 71 74 76 64 43 60 58 58 54 58 61 72 82 72 64 60 60 63 68 69 71 73 68 65 63
41 43 42 45 47 32 35 46 57 54 53 56 57 48 55 57 51 56 63 66 70 67 60 49 51 52 53 49 53 63 67 67 65 60 53 52 52 56 59 61 63 67 67
35 37 35 36 34 31 23 35 52 53 51 53 46 47 56 51 53 44 42 55 61 68 75 71 63 61 57 53 53 56 57 57 55 59 54 50 51 52 47 49 50 54 56
28 27 23 19 23 16 22 18 23 44 46 42 49 59 55 60 64 56 52 50 50 57 53 51 36 51 55 53 58 57 53 52 52 50 47 44 44 42 44 41 40 39 36
23 21 18 15 15 9 8 17 17 26 32 38 37 39 54 52 58 62 49 45 37 43 57 56 52 43 50 61 60 61 55 52 45 42 42 39 39 33 31 32 34 36 40
17 19 22 20 14 16 15 15 20 20 20 23 26 27 34 51 49 53 54 44 40 46 52 52 53 63 56 67 63 66 62 56 49 43 40 35 41 43 44 44 48 51 53
15 14 14 14 12 8 7 6 12 3 11 12 16 19 18 23 44 54 57 64 57 50 58 59 60 65 74 70 72 73 70 66 53 51 59 61 55 56 54 50 44 44 38
18 16 13 11 12 10 8 7 4 7 6 7 10 12 12 15 24 40 49 50 53 54 58 56 54 63 73 74 84 80 78 76 66 64 67 59 50 49 41 40 32 27 24
25 28 26 24 21 22 17 16 14 16 18 19 19 13 7 7 3 9 24 40 53 56 58 62 62 59 62 67 79 75 87 79 65 64 51 55 44 42 33 30 24 21 19
32 35 36 35 32 29 24 29 35 40 44 46 44 41 38 35 28 17 1 12 21 32 40 56 56 53 56 44 60 72 70 68 66 62 42 48 44 41 32 29 30 28 30
35 39 43 45 42 41 42 47 54 58 61 60 56 54 51 50 47 42 36 29 30 27 25 31 34 34 38 41 51 56 64 52 51 44 42 42 55 51 31 27 25 27 27
Wind_Direction_850mb
281 273 266 260 257 251 248 244 240 240 239 239 238 236 234 232 233 234 231 229 225 222 221 223 226 230 233 233 234 234 228 227 224 222 222 220 218 219 231 240 244 238 240
281 275 268 262 256 253 247 244 239 236 239 243 239 239 237 234 233 234 233 230 230 229 229 222 224 226 227 228 228 228 231 232 230 231 231 229 229 232 232 237 242 237 246
281 275 270 264 259 253 250 246 243 238 235 236 246 242 238 236 233 233 234 230 230 232 228 221 222 224 225 225 222 227 234 238 233 233 237 237 236 236 238 241 242 244 246
282 275 271 267 264 257 251 248 247 243 238 242 240 247 242 238 235 233 234 231 229 232 229 223 225 225 225 226 227 231 236 234 228 232 236 239 242 241 241 244 245 247 249
282 275 270 268 265 262 255 250 248 250 246 240 234 240 242 242 235 233 233 232 230 231 231 231 230 229 226 227 230 233 233 235 233 231 235 239 239 241 243 246 248 247 247
280 275 269 268 267 263 261 253 250 248 251 252 246 247 244 237 232 230 233 232 229 229 231 233 234 234 232 229 229 233 232 225 229 236 236 239 237 236 240 247 246 246 249
283 274 269 267 266 264 260 258 252 248 246 243 252 248 256 245 246 238 238 235 230 227 230 232 235 235 232 231 232 233 234 233 228 237 237 236 237 237 237 240 244 246 248
284 279 273 270 266 265 262 258 253 251 247 243 241 251 240 235 229 237 242 239 232 229 230 230 234 236 235 233 234 232 233 235 234 230 233 237 238 237 237 242 247 251 251
280 275 270 271 269 267 263 259 253 247 249 243 234 227 217 214 212 218 228 237 231 231 231 230 229 234 235 234 230 232 234 232 234 236 239 240 240 240 240 244 250 252 254
287 282 278 271 269 267 263 262 254 247 244 245 239 227 235 243 208 198 219 234 240 234 237 234 228 227 232 233 233 235 235 234 233 237 241 244 246 249 250 253 254 256 255
288 283 282 277 269 263 263 266 258 247 240 238 239 232 236 238 231 195 202 212 224 233 245 240 234 234 230 234 234 234 236 237 237 237 239 242 245 249 252 254 255 256 257
291 290 292 283 278 272 272 268 257 246 238 235 234 235 225 233 241 223 212 219 219 223 227 235 234 227 228 235 239 238 237 240 241 243 242 243 245 247 247 249 251 252 255
291 295 293 282 276 280 268 267 256 244 236 233 231 231 232 230 227 226 222 221 217 222 225 224 230 230 235 233 242 237 240 242 244 247 245 241 242 243 244 247 248 251 254
293 295 294 283 277 281 271 260 252 242 237 236 231 231 232 229 235 233 224 222 212 220 228 228 233 235 232 235 238 240 241 242 243 243 242 240 241 242 244 247 249 252 254
295 298 287 281 282 279 269 252 242 237 235 234 230 233 239 232 233 241 232 225 219 212 221 226 231 235 233 230 229 233 240 242 239 244 241 238 240 243 245 246 250 252 253
298 295 288 278 287 275 264 241 235 236 234 230 233 232 228 230 234 236 235 240 234 231 233 235 228 228 231 237 239 239 238 234 237 240 241 242 240 241 249 250 249 248 249
297 293 293 281 290 271 265 236 239 230 229 225 216 216 221 225 233 227 232 237 238 235 222 217 225 234 236 237 235 235 234 232 237 241 232 237 237 242 245 247 248 252 248
305 302 291 284 274 262 238 224 221 223 219 218 215 223 231 228 232 236 230 237 232 220 230 239 233 233 237 241 235 234 231 230 229 230 235 230 233 234 237 240 245 248 247
312 306 302 298 257 268 269 254 222 224 221 231 229 231 234 230 229 232 237 239 232 238 237 238 238 242 235 230 229 220 221 227 229 232 224 225 232 232 235 234 240 242 238
316 315 329 314 314 301 272 246 232 230 221 223 226 225 224 226 227 228 233 239 241 245 235 237 245 240 245 230 223 213 214 210 211 212 222 223 222 211 204 206 212 217 207
338 342 344 347 328 288 279 242 238 215 208 221 229 226 222 221 223 225 231 238 233 237 238 236 234 241 241 219 215 215 205 202 192 197 200 189 187 185 183 184 181 176 174
351 340 335 345 347 329 286 211 173 266 252 234 227 219 234 238 224 218 218 229 237 232 234 235 238 240 242 228 224 207 208 192 169 174 176 167 168 170 165 164 164 168 171
13 15 14 19 40 32 38 92 127 226 203 193 187 199 233 237 241 229 223 222 229 233 239 243 243 236 243 244 224 214 205 195 183 168 174 156 162 160 162 167 175 181 202
47 52 54 55 58 59 66 90 110 119 128 124 110 105 140 180 92 254 231 224 224 225 230 235 238 241 242 241 225 222 200 193 176 165 167 143 152 154 155 157 164 184 185
59 62 66 68 70 80 100 110 116 119 115 105 95 87 84 83 77 70 311 237 232 233 225 228 228 224 223 221 219 211 192 179 160 161 173 162 152 146 147 153 157 159 161
74 72 70 72 75 83 100 105 106 105 103 100 98 94 84 78 76 84 92 105 125 127 151 174 177 180 180 181 180 184 183 183 170 151 166 163 158 150 128 153 166 167 176